This is the latest recevied weather packets stored in our database for station/object IZ1MEU-13. If no packets are shown the sender has not sent any weather packets the latest 1 day(s).
| Time | Temp. | Humidity | Pressure | Rain* | Wind** | Luminosity | Snow |
|---|---|---|---|---|---|---|---|
| 1777727630 | 19.44° C | 35% | 1025.2 hPa | - | - | - | - |
| 1777726426 | 18.89° C | 36% | 1025.5 hPa | - | - | - | - |
| 1777725222 | 18.33° C | 36% | 1025.8 hPa | - | - | - | - |
| 1777724018 | 18.33° C | 37% | 1026.1 hPa | - | - | - | - |
| 1777722814 | 17.78° C | 37% | 1026.4 hPa | - | - | - | - |
| 1777721610 | 17.78° C | 37% | 1026.6 hPa | - | - | - | - |
| 1777720407 | 17.22° C | 38% | 1026.9 hPa | - | - | - | - |
| 1777719203 | 17.22° C | 37% | 1027.2 hPa | - | - | - | - |
| 1777718000 | 17.22° C | 38% | 1027.5 hPa | - | - | - | - |
| 1777716796 | 16.67° C | 40% | 1027.6 hPa | - | - | - | - |
| 1777715593 | 16.11° C | 42% | 1028.1 hPa | - | - | - | - |
| 1777714389 | 15.56° C | 43% | 1028.4 hPa | - | - | - | - |
| 1777713186 | 15.56° C | 44% | 1028.5 hPa | - | - | - | - |
| 1777711982 | 14.44° C | 45% | 1028.6 hPa | - | - | - | - |
| 1777710779 | 14.44° C | 44% | 1028.9 hPa | - | - | - | - |
| 1777709575 | 13.89° C | 44% | 1028.9 hPa | - | - | - | - |
| 1777708372 | 13.33° C | 45% | 1029 hPa | - | - | - | - |
| 1777707168 | 12.78° C | 46% | 1029.1 hPa | - | - | - | - |
| 1777705965 | 12.78° C | 46% | 1029 hPa | - | - | - | - |
| 1777704762 | 12.22° C | 46% | 1029 hPa | - | - | - | - |
| 1777703558 | 11.67° C | 47% | 1029 hPa | - | - | - | - |
* Rain since midnight (hover to see other rain measurements)
** Current wind speed in m/s (hover to see current wind gust speed)